Location: Vancouver
(49.2500°N, 123.1330°W)
Time: 16:30:11
(UTC-07:00)

SO-67 - Visible Passes

Search period start: 25 October 2014 00:00
Search period end: 03 November 2014 23:00
Orbit: 458 x 462 km, 97.2° (Epoch: 25 October)

Date Brightness Start Highest point End Pass type
(mag) Time Alt. Az. Time Alt. Az. Time Alt. Az.
25 Oct ? 19:39:20 10° S 19:42:43 57° W 19:46:08 10° NNW visible
26 Oct ? 19:07:30 10° SSE 19:10:52 56° ENE 19:14:16 10° N visible
26 Oct ? 20:43:00 10° WSW 20:44:12 11° W 20:45:25 10° WNW visible
27 Oct ? 18:36:17 10° ESE 18:39:08 24° ENE 18:41:59 10° NNE visible
27 Oct ? 20:09:09 10° SSW 20:12:03 25° W 20:14:59 10° NW visible
28 Oct ? 19:36:37 10° S 19:40:01 61° W 19:43:27 10° NNW visible
29 Oct ? 19:04:45 10° SSE 19:08:05 52° ENE 19:11:28 10° N visible
29 Oct ? 20:39:55 10° WSW 20:41:23 12° W 20:42:52 10° WNW visible
30 Oct ? 18:33:30 10° ESE 18:36:16 23° ENE 18:39:03 10° NNE visible
30 Oct ? 20:06:11 10° SSW 20:09:09 27° W 20:12:09 10° NW visible
31 Oct ? 07:25:37 10° NE 07:27:44 15° E 07:29:51 10° SE visible
31 Oct ? 19:33:37 10° S 19:37:02 67° WSW 19:40:29 10° NNW visible
01 Nov ? 19:01:43 10° SSE 19:05:02 48° ENE 19:08:23 10° N visible
01 Nov ? 20:36:35 10° WSW 20:38:18 13° W 20:40:01 10° WNW visible
02 Nov ? 17:30:28 10° ESE 17:33:09 22° ENE 17:35:51 10° NNE visible
02 Nov ? 19:02:56 10° SSW 19:05:59 29° W 19:09:03 10° NNW visible
03 Nov ? 06:22:34 10° NE 06:24:31 14° E 06:26:27 10° SE visible
03 Nov ? 18:30:22 10° S 18:33:48 73° WSW 18:37:15 10° NNW visible
